Home   Weather   Tampa   Past weeks

Flag for USA Past Weather in Tampa, Florida, USA — Yesterday and Last 2 Weeks

Now
72 °F

Passing clouds.


Feels Like: 67 °F
Forecast: 67 / 83 °F
Wind: 3 mph from Southwest

Location: Tampa, Peter O Knight Airport

Current Time: Jan 20, 2017 at 7:22:16 pm

Latest Report: Jan 20, 2017 at 6:55 pm


Visibility: 10 mi

Pressure: 29.96 "Hg

Humidity: 94%

Dew Point: 70 °F

Location of TampaLocation

Past Weather in Tampa — Graph

°F

Tampa Temperature Yesterday

Maximum temperature yesterday: 81 °F (at 1:15 pm)
Minimum temperature yesterday: 63 °F (at 3:35 am)
Average temperature yesterday: 69 °F

High & Low Weather Summary for the Past Weeks

 TemperatureHumidityPressure
High82 °F (Jan 14, 2:55 pm)100% (Jan 5, 10:35 pm)30.61 "Hg (Jan 5, 10:35 pm)
Low36 °F (Jan 8, 6:55 am)35% (Jan 9, 2:35 pm)29.91 "Hg (Jan 5, 5:15 pm)
Average66 °F78%30.25 "Hg
* Reported Jan 5 5:15 pm — Jan 20 5:55 pm, Tampa, Weather by CustomWeather, © 2017

Note: Actual official high and low records may vary slightly from our data, if they occured in-between our weather recording intervals... More about our weather records

Advertising

Tampa Weather History for the Previous 24 Hours

Scroll right to see more
 ConditionsComfort  
Time TempWeatherWind HumidityBarometerVisibility
5:55 pm
Fri, Jan 20
73 °FScattered clouds.3 mph83%29.95 "Hg10 mi
5:15 pm77 °FScattered clouds.6 mph74%29.95 "Hg10 mi
4:55 pm77 °FScattered clouds.8 mph65%29.94 "Hg10 mi
4:15 pm79 °FScattered clouds.8 mph61%29.94 "Hg10 mi
3:55 pm79 °FScattered clouds.9 mph61%29.94 "Hg10 mi
3:15 pm81 °FScattered clouds.10 mph62%29.93 "Hg10 mi
2:55 pm81 °FPartly sunny.9 mph58%29.93 "Hg10 mi
2:15 pm79 °FOvercast.8 mph61%29.94 "Hg10 mi
1:55 pm79 °FOvercast.8 mph58%29.95 "Hg10 mi
1:35 pm79 °FMore clouds than sun.8 mph61%29.95 "Hg10 mi
12:55 pm81 °FMostly cloudy.8 mph58%29.97 "Hg10 mi
12:35 pm79 °FMore clouds than sun.6 mph61%29.98 "Hg10 mi
12:15 pm79 °FMore clouds than sun.8 mph61%29.99 "Hg10 mi
11:55 am79 °FMore clouds than sun.7 mph65%30.00 "Hg10 mi
11:35 am77 °FBroken clouds.7 mph69%30.01 "Hg10 mi
11:15 am75 °FScattered clouds.6 mph69%30.01 "Hg10 mi
10:55 am75 °FBroken clouds.7 mph69%30.02 "Hg10 mi
10:35 am73 °FPartly sunny.6 mph78%30.03 "Hg10 mi
9:55 am72 °FPartly sunny.6 mph83%30.02 "Hg10 mi
9:15 am70 °FPartly sunny.5 mph94%30.01 "Hg10 mi
8:55 am70 °FBroken clouds.6 mph94%30.01 "Hg10 mi
8:15 am68 °FBroken clouds.No wind94%29.99 "Hg10 mi
7:55 am66 °FBroken clouds.No wind100%29.99 "Hg10 mi
7:35 am64 °FPartly sunny.5 mph100%29.98 "Hg10 mi
6:55 am63 °FPassing clouds.5 mph100%29.98 "Hg7 mi
6:15 am63 °FOvercast.No wind100%29.98 "Hg10 mi
5:55 am64 °FPassing clouds.3 mph100%29.97 "Hg10 mi
5:15 am66 °FClear.6 mph94%29.96 "Hg10 mi
4:55 am68 °FPassing clouds.6 mph94%29.97 "Hg10 mi
4:35 am68 °FPassing clouds.No wind88%29.97 "Hg10 mi
3:55 am66 °FPassing clouds.3 mph94%29.98 "Hg10 mi
3:15 am68 °FPassing clouds.3 mph100%29.98 "Hg10 mi
2:55 am68 °FPassing clouds.5 mph94%29.98 "Hg10 mi
2:35 am68 °FPassing clouds.3 mph94%29.97 "Hg10 mi
1:55 am68 °FPassing clouds.No wind94%29.98 "Hg10 mi
1:35 am68 °FPassing clouds.3 mph88%29.98 "Hg10 mi
12:55 am68 °FPartly cloudy.6 mph88%29.98 "Hg10 mi
12:15 am68 °FPassing clouds.7 mph94%29.98 "Hg10 mi
11:55 pm
Thu, Jan 19
68 °FPassing clouds.7 mph88%29.98 "Hg10 mi
11:15 pm68 °FPartly cloudy.No wind88%29.98 "Hg10 mi
10:55 pm68 °FPassing clouds.No wind88%29.99 "Hg10 mi
10:15 pm70 °FOvercast.No wind83%30.00 "Hg10 mi
9:35 pm68 °FOvercast.No wind88%29.98 "Hg10 mi
8:55 pm68 °FOvercast.No wind94%29.98 "Hg10 mi
8:35 pm70 °FOvercast.No wind88%29.98 "Hg10 mi
7:55 pm70 °FOvercast.3 mph88%29.99 "Hg10 mi
7:15 pm70 °FPassing clouds.3 mph83%30.00 "Hg10 mi
Weather by CustomWeather, © 2017

See weather overviewHow to use our weather pages